#timestamp,LO_Frequency,Hit,StdDev 
1639839615.9,286046999.8,P
1639839635.7,286047002.7,P
1639839655.5,286047002.1,N
1639839675.4,286047002.3,N
1639839695.2,286047002.1,N
1639839715.1,286047001.5,N
1639839716.0,286047001.5,N
1639839735.8,286047001.5,N
1639839755.6,286047003.4,Y
1639839775.5,286047001.6,P
1639839795.3,286047001.5,P
1639839815.1,286047000.6,P
1639839835.9,286047001.2,N
1639839855.7,286046998.3,Y
1639839875.6,286046997.2,P
1639839895.4,286046998.0,N
1639839915.2,286046997.7,N
1639839935.1,286046999.2,N
1639839936.0,286046999.2,N
1639839955.8,286046998.7,N
1639839975.7,286047000.6,N
1639839995.5,286046998.6,N
1639840015.3,286046998.9,N
1639840035.2,286046998.4,N
1639840055.0,286046998.8,N
1639840055.9,286046998.8,N
1639840075.7,286046998.3,N
1639840095.6,286046998.4,N
1639840115.4,286046999.1,N
1639840135.3,286046997.8,N
1639840155.1,286046997.8,N
1639840156.0,286046997.8,N
1639840175.8,286046994.9,Y
1639840195.7,286046999.4,P
1639840215.5,286046999.5,N
1639840235.3,286046998.4,P
1639840255.2,286047000.4,N
1639840275.0,286047000.3,N
1639840275.9,286047000.3,N
1639840295.8,286047000.4,N
1639840315.6,286047000.6,N
1639840335.4,286046999.9,N
1639840385.3,286047000.0,E
1639840395.2,286047000.5,N
1639840415.1,286047000.2,P
1639840416.0,286047000.2,N
1639840435.8,286047002.3,Y
1639840455.6,286047002.2,P
1639840475.5,286047000.3,N
1639840495.3,286047001.0,N
1639840515.2,286046998.4,N
1639840535.9,286046999.4,N
1639840555.7,286046998.1,N
1639840575.6,286047000.7,N
1639840595.4,286047000.5,N
1639840615.2,286046998.7,N
1639840635.1,286047002.4,N
1639840636.0,286047002.4,N
1639840655.8,286046998.1,N
1639840675.7,286046998.2,N
1639840695.5,286047000.3,N
1639840715.3,286046999.9,N
1639840735.2,286046999.9,N
1639840755.0,286047000.0,N
1639840755.9,286047000.0,N
1639840775.8,286047002.7,N
1639840795.6,286047000.0,N
1639840815.4,286046999.9,N
1639840835.3,286046998.2,N
1639840855.1,286046998.6,N
1639840875.8,286046997.7,N
1639840895.7,286046997.2,N
1639840915.5,286046999.6,N
1639840935.4,286046997.1,N
1639840955.2,286046999.5,N
1639840975.0,286046999.1,N
1639840975.9,286046999.1,N
1639840995.8,286046999.6,N
1639841015.6,286046998.6,N
1639841035.4,286046998.8,N
1639841055.3,286046998.5,N
1639841075.1,286046998.4,N
1639841095.9,286046999.1,N
1639841115.7,286047000.7,N
1639841135.5,286046998.1,N
1639841155.4,286046998.1,N
1639841175.2,286047000.4,N
1639841195.0,286046998.3,N
1639841195.9,286046998.3,N
1639841215.8,286046998.5,N
1639841235.6,286047001.2,N
1639841255.5,286046998.4,N
1639841275.3,286046999.2,N
1639841295.1,286046998.7,N
1639841315.9,286047000.7,N
1639841335.7,286046999.9,N
1639841355.5,286046999.7,N
1639841375.4,286047000.3,N
1639841395.2,286047000.7,N
1639841415.1,286047000.7,N
1639841416.0,286047000.7,N
1639841435.8,286047000.5,N
1639841455.6,286047000.7,N
1639841475.5,286046999.1,N
1639841495.3,286047001.2,N
1639841515.2,286046998.1,N
1639841535.9,286047000.3,N
1639841555.7,286046998.5,N
1639841575.6,286046998.7,N
1639841595.4,286046999.9,N
1639841615.2,286047001.2,N
1639841635.1,286046998.8,N
1639841636.0,286046998.8,N
1639841655.8,286046996.7,Y
1639841675.7,286046997.0,P
1639841695.5,286046998.9,N
1639841715.3,286046998.6,N
1639841735.2,286047001.5,N
1639841755.0,286047002.8,N
1639841755.9,286047002.8,N
1639841775.8,286047000.6,N
1639841795.6,286047001.1,N
1639841815.4,286047001.1,N
1639841835.3,286047001.1,N
1639841855.1,286047000.2,N
1639841875.8,286047000.2,N
1639841895.7,286047002.3,N
1639841915.5,286047000.2,N
1639841935.4,286047002.7,N
1639841955.2,286047001.9,N
1639841975.1,286047001.6,N
1639841976.0,286047001.6,N
1639841995.8,286047002.5,N
1639842015.6,286047003.5,N
1639842035.5,286047002.3,N
1639842055.3,286047002.4,N
1639842075.1,286047002.7,N
1639842095.9,286047000.2,N
1639842115.7,286047002.3,N
1639842135.6,286047002.0,N
1639842155.4,286047004.4,N
1639842175.2,286047003.9,N
1639842195.1,286047001.6,N
1639842196.0,286047001.6,N
1639842215.8,286046999.7,N
1639842235.6,286046999.7,N
1639842255.5,286046998.3,N
1639842275.3,286046999.0,N
1639842295.2,286046998.8,N
1639842315.9,286046998.4,N
1639842335.7,286046998.5,N
1639842355.6,286046998.4,N
1639842375.4,286047001.1,N
1639842395.2,286046998.4,N
1639842415.1,286046999.3,N
1639842416.0,286046999.3,N
1639842435.8,286047001.1,N
1639842455.7,286047001.1,N
1639842475.5,286046998.2,N
1639842495.3,286046998.8,N
1639842515.2,286047000.8,N
1639842535.0,286046998.9,N
1639842535.9,286046998.9,N
1639842555.8,286046999.0,N
1639842575.6,286046999.3,N
1639842595.4,286047000.7,N
1639842615.3,286047001.1,N
1639842635.1,286047000.3,N
1639842655.8,286047001.1,N
1639842675.7,286047000.1,N
1639842695.5,286047000.3,N
1639842715.4,286047001.9,N
1639842735.2,286047000.1,N
1639842755.0,286047002.0,N
1639842755.9,286047002.0,N
1639842775.8,286047001.8,N
1639842795.6,286047001.9,N
1639842815.4,286047002.5,N
1639842835.3,286047001.5,N
1639842855.1,286047002.2,N
1639842875.9,286047002.7,N
1639842895.7,286047002.0,N
1639842915.5,286047001.8,N
1639842935.4,286047001.7,N
1639842955.2,286047001.8,N
1639842975.1,286046999.7,N
1639842976.0,286046999.7,N
1639842995.8,286047002.3,N
1639843015.6,286047000.2,N
1639843035.5,286047002.8,N
1639843055.3,286047002.3,N
1639843075.1,286047001.5,N
1639843095.9,286047001.6,N
1639843115.7,286047000.1,N
1639843135.6,286047000.5,N
1639843155.4,286047000.4,N
1639843175.2,286047000.2,N
1639843195.1,286047002.8,N
1639843196.0,286047002.8,N
